Satellite-Ground Cal/Val Site Overpasses Predictions

Prediction of Satellite NPP Overpassing Cal/Val Site: Antarctic Dome C

Ground Cal/Val Site Location: Latitude: -75.10, Longitude: 123.35; Satellite-Ground Site NADIR distance within 100 km.

Table of predicted overpasses for the next 14.0 days since TLE Epoch: 3/1/2019
Interval Starting Time Ending Time Minimum Distance Time Minimum Distance (km)
1 03/02/2019 15:07:36 03/02/2019 15:07:43 03/02/2019 15:07:39 96.69
2 03/03/2019 14:48:35 03/03/2019 14:49:04 03/03/2019 14:48:49 14.93
3 03/05/2019 07:31:23 03/05/2019 07:31:53 03/05/2019 07:31:38 0.72
4 03/08/2019 14:54:48 03/08/2019 14:55:17 03/08/2019 14:55:02 21.71
5 03/09/2019 14:36:06 03/09/2019 14:36:21 03/09/2019 14:36:13 85.53
6 03/10/2019 07:37:38 03/10/2019 07:38:05 03/10/2019 07:37:52 36.42
7 03/11/2019 07:18:51 03/11/2019 07:19:11 03/11/2019 07:19:01 73.63
8 03/13/2019 15:01:05 03/13/2019 15:01:28 03/13/2019 15:01:16 58.41
9 03/14/2019 14:42:14 03/14/2019 14:42:39 03/14/2019 14:42:27 50.86


NCC Satellite Cal/Val Overpasses Prediction Service
